Location: Dal�� Lhota
(48.7500°N, 14.0167°E)
Time: 23:10:47
(UTC+00:00)

CZ-2C R/B - Pass Details

Date: 24 September 2020
Orbit: 785 x 870 km, 98.2° (Epoch: 25 October)

Event Time Altitude Azimuth Distance (km) Brightness Sun altitude
Rises 19:04:39 0° 13° (NNE) 3,433 6.0 -21.3°
Reaches altitude 10° 19:07:01 10° 12° (NNE) 2,502 5.3 -21.6°
Maximum altitude 19:12:36 80° 286° (WNW) 884 2.8 -22.5°
Drops below altitude 10° 19:18:12 10° 201° (SSW) 2,510 5.1 -23.3°
Sets 19:20:35 0° 200° (SSW) 3,445 5.8 -23.6°
